Weili Kongjian 01-05

operational
NORAD ID: 62580 Int'l Des: 2025-007 Owner: CENTI Country: CN Constellation: future-navigation
LEOCIRCULAR

Weili Kongjian 01-05について

説明を読み込み中...

リアルタイム位置

3D地球を読み込み中...

次回通過

高度履歴

Altitude vs Time

uPlot chart will show altitude changes over time

軌道要素

1 62580U 25007F 26095.30359187 .00000044 00000-0 17509-3 0 9996
2 62580 54.9771 186.0021 0009081 319.8023 40.2261 13.80585185 64669
Epoch: Apr 5, 2026 • Age: 8 hours

現在のステータス

高度 976.8 km
速度 7.37 km/s
衛星直下点 -55.02°S, 32.35°E
打ち上げ日 Jan 13, 2025
運用期間 1.2 years
タイプ other

技術仕様

分類 Payload
質量 140.00 kg
乾燥質量 140.00 kg
総質量 140.00 kg
長さ 1.00 m
直径 0.50 m
スパン 2.00 m
形状 Box + 2 pan
製造者 DFHS
バスタイプ WK01
フェーズステータス In Orbit
所有者/国 CENTI/CN

大規模コンステレーション

Loading constellations...